SB KEPS @ AMSAT $ORB11237.O Orbital Elements 11237.OSCAR
HR AMSAT ORBITAL ELEMENTS FOR OSCAR SATELLITES FROM WA5QGD FORT WORTH,TX August 25, 2011 Send Subscribe/unsubscribe to KEPS at http://www.amsat.org/mailman/listinfo/keps BID: ORB11237.O TO ALL RADIO AMATEURS BT
Satellite: AO-07 Catalog number: 07530 Epoch time: 11237.58731306 Element set: 163 Inclination: 101.3949 deg RA of node: 241.3950 deg Eccentricity: 0.0012009 Arg of perigee: 142.2796 deg Mean anomaly: 217.9118 deg Mean motion: 12.53583583 rev/day Decay rate: -2.7e-07 rev/day^2 Epoch rev: 68288 Checksum: 298
Satellite: FO-29 Catalog number: 24278 Epoch time: 11237.57051987 Element set: 647 Inclination: 098.5573 deg RA of node: 012.3756 deg Eccentricity: 0.0351309 Arg of perigee: 077.4666 deg Mean anomaly: 286.5532 deg Mean motion: 13.52964277 rev/day Decay rate: -3.5e-07 rev/day^2 Epoch rev: 74184 Checksum: 346
Satellite: SO-33 Catalog number: 25509 Epoch time: 11236.30598917 Element set: 0040 Inclination: 031.4299 deg RA of node: 219.0298 deg Eccentricity: 0.0353549 Arg of perigee: 117.4269 deg Mean anomaly: 246.2737 deg Mean motion: 14.28439884 rev/day Decay rate: 1.92e-06 rev/day^2 Epoch rev: 67002 Checksum: 323
Satellite: RS-22 Catalog number: 27939 Epoch time: 11237.75032254 Element set: 570 Inclination: 097.8395 deg RA of node: 088.3992 deg Eccentricity: 0.0014402 Arg of perigee: 121.6593 deg Mean anomaly: 238.6024 deg Mean motion: 14.63628442 rev/day Decay rate: 2.70e-06 rev/day^2 Epoch rev: 42251 Checksum: 304
Satellite: VO-52 Catalog number: 28650 Epoch time: 11236.55261574 Element set: 0881 Inclination: 097.6370 deg RA of node: 276.6072 deg Eccentricity: 0.0025806 Arg of perigee: 299.2453 deg Mean anomaly: 060.6203 deg Mean motion: 14.82148330 rev/day Decay rate: 6.25e-06 rev/day^2 Epoch rev: 34087 Checksum: 306
Satellite: SO-67 Catalog number: 35870 Epoch time: 11237.29503758 Element set: 157 Inclination: 097.2750 deg RA of node: 278.3386 deg Eccentricity: 0.0003479 Arg of perigee: 117.3492 deg Mean anomaly: 304.5119 deg Mean motion: 15.20991004 rev/day Decay rate: 1.505e-05 rev/day^2 Epoch rev: 10744 Checksum: 309
Satellite: HO-68 Catalog number: 36122 Epoch time: 11237.70986178 Element set: 680 Inclination: 100.4091 deg RA of node: 297.4496 deg Eccentricity: 0.0007763 Arg of perigee: 067.5860 deg Mean anomaly: 292.6066 deg Mean motion: 13.16287875 rev/day Decay rate: -4.4e-07 rev/day^2 Epoch rev: 8138 Checksum: 332
/EX SB KEPS @ AMSAT $ORB11237.D Orbital Elements 11237.MICROS
HR AMSAT ORBITAL ELEMENTS FOR THE MICROSATS FROM WA5QGD FORT WORTH,TX August 25, 2011 Send Subscribe/unsubscribe to KEPS at http://www.amsat.org/mailman/listinfo/keps BID: ORB11237.D TO ALL RADIO AMATEURS BT
Satellite: UO-11 Catalog number: 14781 Epoch time: 11236.76163648 Element set: 0647 Inclination: 097.9974 deg RA of node: 293.2341 deg Eccentricity: 0.0007918 Arg of perigee: 278.7803 deg Mean anomaly: 081.2512 deg Mean motion: 14.80016839 rev/day Decay rate: 1.07e-06 rev/day^2 Epoch rev: 47593 Checksum: 328
Satellite: AO-16 Catalog number: 20439 Epoch time: 11237.89802416 Element set: 264 Inclination: 098.3898 deg RA of node: 185.2042 deg Eccentricity: 0.0010649 Arg of perigee: 322.0282 deg Mean anomaly: 038.0147 deg Mean motion: 14.31934741 rev/day Decay rate: 4.0e-07 rev/day^2 Epoch rev: 12759 Checksum: 294
Satellite: LO-19 Catalog number: 20442 Epoch time: 11236.91862833 Element set: 0199 Inclination: 098.3522 deg RA of node: 188.3452 deg Eccentricity: 0.0011181 Arg of perigee: 316.3832 deg Mean anomaly: 043.6467 deg Mean motion: 14.32159056 rev/day Decay rate: 4.4e-07 rev/day^2 Epoch rev: 12763 Checksum: 296
Satellite: AO-27 Catalog number: 22825 Epoch time: 11236.54194020 Element set: 0897 Inclination: 098.5349 deg RA of node: 179.6005 deg Eccentricity: 0.0009326 Arg of perigee: 075.7147 deg Mean anomaly: 284.5077 deg Mean motion: 14.29359134 rev/day Decay rate: 8.0e-08 rev/day^2 Epoch rev: 93395 Checksum: 330
Satellite: IO-26 Catalog number: 22826 Epoch time: 11236.87877614 Element set: 0652 Inclination: 098.5285 deg RA of node: 180.3819 deg Eccentricity: 0.0010086 Arg of perigee: 068.6549 deg Mean anomaly: 291.5706 deg Mean motion: 14.29622773 rev/day Decay rate: 5.1e-07 rev/day^2 Epoch rev: 93412 Checksum: 331
Satellite: GO-32 Catalog number: 25397 Epoch time: 11236.73943888 Element set: 0563 Inclination: 098.3323 deg RA of node: 225.6527 deg Eccentricity: 0.0002217 Arg of perigee: 080.8162 deg Mean anomaly: 279.3269 deg Mean motion: 14.23215818 rev/day Decay rate: -2.4e-07 rev/day^2 Epoch rev: 68171 Checksum: 316
Satellite: NO-44 Catalog number: 26931 Epoch time: 11236.87891353 Element set: 0834 Inclination: 067.0531 deg RA of node: 166.5255 deg Eccentricity: 0.0005586 Arg of perigee: 254.9864 deg Mean anomaly: 105.0618 deg Mean motion: 14.29675648 rev/day Decay rate: 2.08e-06 rev/day^2 Epoch rev: 51674 Checksum: 331
Satellite: SO-50 Catalog number: 27607 Epoch time: 11236.69359009 Element set: 548 Inclination: 064.5576 deg RA of node: 119.4938 deg Eccentricity: 0.0078250 Arg of perigee: 306.7345 deg Mean anomaly: 052.6581 deg Mean motion: 14.71795585 rev/day Decay rate: 1.74e-06 rev/day^2 Epoch rev: 46617 Checksum: 341
Satellite: CO-55 Catalog number: 27844 Epoch time: 11236.55595828 Element set: 0184 Inclination: 098.7072 deg RA of node: 244.2676 deg Eccentricity: 0.0010230 Arg of perigee: 006.6005 deg Mean anomaly: 353.5322 deg Mean motion: 14.20835220 rev/day Decay rate: 8.9e-07 rev/day^2 Epoch rev: 42262 Checksum: 289
Satellite: CO-57 Catalog number: 27848 Epoch time: 11236.01701432 Element set: 0133 Inclination: 098.7148 deg RA of node: 242.9489 deg Eccentricity: 0.0010242 Arg of perigee: 013.5098 deg Mean anomaly: 346.6342 deg Mean motion: 14.20611691 rev/day Decay rate: 5.1e-07 rev/day^2 Epoch rev: 42249 Checksum: 286
Satellite: AO-51 Catalog number: 28375 Epoch time: 11236.58646400 Element set: 53 Inclination: 098.1046 deg RA of node: 211.4591 deg Eccentricity: 0.0082745 Arg of perigee: 222.7722 deg Mean anomaly: 136.7008 deg Mean motion: 14.40774529 rev/day Decay rate: 4.6e-07 rev/day^2 Epoch rev: 37591 Checksum: 300
Satellite: CP3 Catalog number: 31129 Epoch time: 11237.79370093 Element set: 952 Inclination: 097.8963 deg RA of node: 257.9798 deg Eccentricity: 0.0100494 Arg of perigee: 325.4589 deg Mean anomaly: 034.0072 deg Mean motion: 14.52543153 rev/day Decay rate: 1.90e-06 rev/day^2 Epoch rev: 23094 Checksum: 316
Satellite: CO-65 Catalog number: 32785 Epoch time: 11236.74116667 Element set: 0080 Inclination: 097.8422 deg RA of node: 299.3041 deg Eccentricity: 0.0014129 Arg of perigee: 316.8099 deg Mean anomaly: 043.2038 deg Mean motion: 14.82085212 rev/day Decay rate: 5.98e-06 rev/day^2 Epoch rev: 17969 Checksum: 325
Satellite: PRISM Catalog number: 33493 Epoch time: 11237.78021597 Element set: 898 Inclination: 098.1324 deg RA of node: 007.4437 deg Eccentricity: 0.0019774 Arg of perigee: 172.4447 deg Mean anomaly: 187.7079 deg Mean motion: 14.81855709 rev/day Decay rate: 9.08e-06 rev/day^2 Epoch rev: 13982 Checksum: 345
Satellite: SOHLA-1 Catalog number: 33496 Epoch time: 11236.95212697 Element set: 0505 Inclination: 098.0854 deg RA of node: 346.1071 deg Eccentricity: 0.0005489 Arg of perigee: 266.1866 deg Mean anomaly: 093.8716 deg Mean motion: 14.69646924 rev/day Decay rate: 2.46e-06 rev/day^2 Epoch rev: 13858 Checksum: 339
Satellite: TISAT-1 Catalog number: 36799 Epoch time: 11237.81178060 Element set: 172 Inclination: 098.0966 deg RA of node: 306.7374 deg Eccentricity: 0.0016450 Arg of perigee: 055.2670 deg Mean anomaly: 305.0079 deg Mean motion: 14.80669811 rev/day Decay rate: 5.25e-06 rev/day^2 Epoch rev: 6061 Checksum: 302
Satellite: STUDSAT Catalog number: 36801 Epoch time: 11236.79879690 Element set: 0235 Inclination: 098.1036 deg RA of node: 305.6289 deg Eccentricity: 0.0014545 Arg of perigee: 046.6449 deg Mean anomaly: 313.5970 deg Mean motion: 14.80898215 rev/day Decay rate: 1.398e-05 rev/day^2 Epoch rev: 06045 Checksum: 326
Satellite: OOREOS Catalog number: 37224 Epoch time: 11153.29456974 Element set: 0179 Inclination: 071.9726 deg RA of node: 071.8135 deg Eccentricity: 0.0020315 Arg of perigee: 307.7637 deg Mean anomaly: 052.1684 deg Mean motion: 14.77036357 rev/day Decay rate: 4.92e-06 rev/day^2 Epoch rev: 02867 Checksum: 309
Satellite: FO-69 Catalog number: 37227 Epoch time: 11236.21052771 Element set: 0115 Inclination: 071.9679 deg RA of node: 249.2733 deg Eccentricity: 0.0016566 Arg of perigee: 160.7113 deg Mean anomaly: 199.4694 deg Mean motion: 14.76627258 rev/day Decay rate: 1.32e-06 rev/day^2 Epoch rev: 01936 Checksum: 318
Satellite: NANOSALD Catalog number: 37361 Epoch time: 11234.36059812 Element set: 0339 Inclination: 071.9743 deg RA of node: 240.0921 deg Eccentricity: 0.0027476 Arg of perigee: 261.0557 deg Mean anomaly: 098.7859 deg Mean motion: 15.20516870 rev/day Decay rate: 5.0508e-04 rev/day^2 Epoch rev: 03211 Checksum: 294
Satellite: FO-70 Catalog number: 37380 Epoch time: 11236.23500000 Element set: 0252 Inclination: 071.9713 deg RA of node: 249.4107 deg Eccentricity: 0.0017170 Arg of perigee: 157.2901 deg Mean anomaly: 202.9024 deg Mean motion: 14.76392013 rev/day Decay rate: 8.6e-07 rev/day^2 Epoch rev: 04090 Checksum: 249
/EX SB KEPS @ AMSAT $ORB11237.W Orbital Elements 11237.WEATHER
HR AMSAT ORBITAL ELEMENTS FOR WEATHER SATELLITES FROM WA5QGD FORT WORTH,TX August 25, 2011 Send Subscribe/unsubscribe to KEPS at http://www.amsat.org/mailman/listinfo/keps BID: ORB11237.W TO ALL RADIO AMATEURS BT
Satellite: NOAA-10 Catalog number: 16969 Epoch time: 11236.69161909 Element set: 0618 Inclination: 098.6157 deg RA of node: 265.5357 deg Eccentricity: 0.0012811 Arg of perigee: 028.5737 deg Mean anomaly: 331.6142 deg Mean motion: 14.27473092 rev/day Decay rate: -1.2e-07 rev/day^2 Epoch rev: 29742 Checksum: 313
